Time,TemperatureF,DewpointF,PressureIn,WindDirection,WindDirectionDegrees,WindSpeedMPH,WindSpeedGustMPH,Humidity,HourlyPrecipIn,Conditions,Clouds,dailyrainin,SoftwareType,DateUTC
2013-02-02 00:00:00,24.1,8.6,30.12,WNW,300,17.0,33.0,51,0.00,,SKC,0.00,VWS V13.01,2013-02-02 05:00:00,
2013-02-02 00:01:00,24.1,8.6,30.12,NW,304,22.0,33.0,51,0.00,,SKC,0.00,VWS V13.01,2013-02-02 05:01:00,
2013-02-02 00:02:00,24.1,8.6,30.12,NW,307,22.0,29.0,51,0.00,,SKC,0.00,VWS V13.01,2013-02-02 05:02:00,
2013-02-02 00:07:00,24.1,8.6,30.12,WNW,297,11.0,29.0,51,0.00,,SKC,0.00,VWS V13.01,2013-02-02 05:07:00,
2013-02-02 00:12:00,24.1,8.6,30.12,WNW,297,17.0,22.0,51,0.00,,SKC,0.00,VWS V13.01,2013-02-02 05:12:00,
2013-02-02 00:17:00,24.1,8.2,30.12,West,276,22.0,29.0,50,0.00,,SKC,0.00,VWS V13.01,2013-02-02 05:17:00,
2013-02-02 00:22:00,24.1,8.2,30.12,WNW,288,21.0,25.0,50,0.00,,SKC,0.00,VWS V13.01,2013-02-02 05:22:00,
2013-02-02 00:27:00,24.0,8.9,30.12,West,273,11.0,25.0,52,0.00,,SKC,0.00,VWS V13.01,2013-02-02 05:27:00,
2013-02-02 00:32:00,24.1,10.3,30.12,WNW,300,13.0,15.0,55,0.00,,SKC,0.00,VWS V13.01,2013-02-02 05:32:00,
2013-02-02 00:37:00,24.2,10.0,30.12,WNW,290,11.0,23.0,54,0.00,,SKC,0.00,VWS V13.01,2013-02-02 05:37:00,
2013-02-02 00:42:00,24.3,8.8,30.12,WNW,288,15.0,25.0,51,0.00,,SKC,0.00,VWS V13.01,2013-02-02 05:42:00,
2013-02-02 00:47:00,24.3,9.6,30.12,WNW,286,16.0,25.0,53,0.00,,SKC,0.00,VWS V13.01,2013-02-02 05:47:00,
2013-02-02 00:52:00,24.3,9.2,30.12,NW,304,16.0,22.0,52,0.00,,SKC,0.00,VWS V13.01,2013-02-02 05:52:00,
2013-02-02 00:57:00,24.3,8.8,30.12,NW,316,16.0,27.0,51,0.00,,SKC,0.00,VWS V13.01,2013-02-02 05:57:00,
2013-02-02 01:02:00,24.3,8.8,30.12,West,277,11.0,24.0,51,0.00,,SKC,0.00,VWS V13.01,2013-02-02 06:02:00,
2013-02-02 01:07:00,24.4,9.7,30.13,West,265,14.0,27.0,53,0.00,,SKC,0.00,VWS V13.01,2013-02-02 06:07:00,
2013-02-02 01:12:00,24.4,8.4,30.13,WNW,292,22.0,29.0,50,0.00,,SKC,0.00,VWS V13.01,2013-02-02 06:12:00,
2013-02-02 01:17:00,24.2,6.9,30.13,WNW,294,12.0,29.0,47,0.00,,SKC,0.00,VWS V13.01,2013-02-02 06:17:00,
2013-02-02 01:22:00,24.2,7.8,30.14,WNW,291,22.0,31.0,49,0.00,,SKC,0.00,VWS V13.01,2013-02-02 06:22:00,
2013-02-02 01:27:00,24.1,7.7,30.13,WNW,297,14.0,31.0,49,0.00,,SKC,0.00,VWS V13.01,2013-02-02 06:27:00,
2013-02-02 01:32:00,24.1,8.6,30.14,WNW,296,11.0,28.0,51,0.00,,SKC,0.00,VWS V13.01,2013-02-02 06:32:00,
2013-02-02 01:37:00,24.2,8.3,30.14,West,279,7.0,29.0,50,0.00,,SKC,0.00,VWS V13.01,2013-02-02 06:37:00,
2013-02-02 01:42:00,24.2,9.1,30.14,WNW,293,12.0,17.0,52,0.00,,SKC,0.00,VWS V13.01,2013-02-02 06:42:00,
2013-02-02 01:47:00,24.1,8.2,30.15,WSW,250,15.0,26.0,50,0.00,,SKC,0.00,VWS V13.01,2013-02-02 06:47:00,
2013-02-02 01:52:00,24.1,8.6,30.15,WNW,290,25.0,28.0,51,0.00,,SKC,0.00,VWS V13.01,2013-02-02 06:52:00,
2013-02-02 01:57:00,24.1,7.7,30.15,NW,305,12.0,31.0,49,0.00,,SKC,0.00,VWS V13.01,2013-02-02 06:57:00,
2013-02-02 02:02:00,23.9,7.5,30.16,NW,313,27.0,33.0,49,0.00,,SKC,0.00,VWS V13.01,2013-02-02 07:02:00,
2013-02-02 02:07:00,23.8,7.4,30.15,NW,311,14.0,33.0,49,0.00,,SKC,0.00,VWS V13.01,2013-02-02 07:07:00,
2013-02-02 02:12:00,23.8,7.4,30.15,NW,306,16.0,33.0,49,0.00,,SKC,0.00,VWS V13.01,2013-02-02 07:12:00,
2013-02-02 02:17:00,23.7,7.8,30.16,WNW,293,25.0,34.0,50,0.00,,SKC,0.00,VWS V13.01,2013-02-02 07:17:00,
2013-02-02 02:22:00,23.7,7.8,30.16,WNW,301,28.0,33.0,50,0.00,,SKC,0.00,VWS V13.01,2013-02-02 07:22:00,
2013-02-02 02:27:00,23.7,7.8,30.16,WNW,296,15.0,33.0,50,0.00,,SKC,0.00,VWS V13.01,2013-02-02 07:27:00,
2013-02-02 02:32:00,23.7,8.2,30.16,WNW,282,20.0,30.0,51,0.00,,SKC,0.00,VWS V13.01,2013-02-02 07:32:00,
2013-02-02 02:38:00,23.6,8.6,30.16,WNW,284,15.0,33.0,52,0.00,,SKC,0.00,VWS V13.01,2013-02-02 07:38:00,
2013-02-02 02:43:00,23.6,8.6,30.16,WNW,296,21.0,27.0,52,0.00,,SKC,0.00,VWS V13.01,2013-02-02 07:43:00,
2013-02-02 02:48:00,23.6,9.0,30.16,WNW,299,25.0,27.0,53,0.00,,SKC,0.00,VWS V13.01,2013-02-02 07:48:00,
2013-02-02 02:53:00,23.6,8.6,30.16,NW,305,13.0,22.0,52,0.00,,SKC,0.00,VWS V13.01,2013-02-02 07:53:00,
2013-02-02 02:58:00,23.5,7.6,30.16,WNW,298,14.0,29.0,50,0.00,,SKC,0.00,VWS V13.01,2013-02-02 07:58:00,
2013-02-02 03:05:00,23.4,8.4,30.16,NW,318,23.0,29.0,52,0.00,,SKC,0.00,VWS V13.01,2013-02-02 08:05:00,
2013-02-02 03:10:00,23.3,7.0,30.17,WNW,299,20.0,34.0,49,0.00,,SKC,0.00,VWS V13.01,2013-02-02 08:10:00,
2013-02-02 03:15:00,23.3,7.9,30.17,WNW,294,23.0,33.0,51,0.00,,SKC,0.00,VWS V13.01,2013-02-02 08:15:00,
2013-02-02 03:20:00,23.2,7.3,30.17,WNW,294,30.0,34.0,50,0.00,,SKC,0.00,VWS V13.01,2013-02-02 08:20:00,
2013-02-02 03:25:00,23.2,6.9,30.17,NW,315,19.0,35.0,49,0.00,,SKC,0.00,VWS V13.01,2013-02-02 08:25:00,
2013-02-02 03:30:00,23.2,8.2,30.17,NW,311,27.0,35.0,52,0.00,,SKC,0.00,VWS V13.01,2013-02-02 08:30:00,
2013-02-02 03:35:00,23.1,7.7,30.17,WNW,302,16.0,30.0,51,0.00,,SKC,0.00,VWS V13.01,2013-02-02 08:35:00,
2013-02-02 03:40:00,23.2,9.0,30.17,NW,310,15.0,30.0,54,0.00,,SKC,0.00,VWS V13.01,2013-02-02 08:40:00,
2013-02-02 03:45:00,23.2,8.6,30.18,WNW,296,8.0,21.0,53,0.00,,SKC,0.00,VWS V13.01,2013-02-02 08:45:00,
2013-02-02 03:50:00,23.1,8.9,30.18,WNW,286,14.0,23.0,54,0.00,,SKC,0.00,VWS V13.01,2013-02-02 08:50:00,
2013-02-02 03:56:00,23.1,8.5,30.18,WNW,282,13.0,26.0,53,0.00,,SKC,0.00,VWS V13.01,2013-02-02 08:56:00,
2013-02-02 04:01:00,23.1,8.9,30.18,NW,304,14.0,26.0,54,0.00,,SKC,0.00,VWS V13.01,2013-02-02 09:01:00,
2013-02-02 04:06:00,23.1,8.9,30.18,NW,304,8.0,22.0,54,0.00,,SKC,0.00,VWS V13.01,2013-02-02 09:06:00,
2013-02-02 04:11:00,23.0,8.9,30.18,WNW,290,11.0,11.0,54,0.00,,SKC,0.00,VWS V13.01,2013-02-02 09:11:00,
2013-02-02 04:16:00,23.0,8.9,30.18,NW,309,16.0,24.0,54,0.00,,SKC,0.00,VWS V13.01,2013-02-02 09:16:00,
2013-02-02 04:21:00,23.0,10.4,30.18,WNW,292,7.0,10.0,58,0.00,,SKC,0.00,VWS V13.01,2013-02-02 09:21:00,
2013-02-02 04:26:00,23.0,8.9,30.19,WNW,283,9.0,24.0,54,0.00,,SKC,0.00,VWS V13.01,2013-02-02 09:26:00,
2013-02-02 04:31:00,22.9,9.2,30.19,WNW,293,11.0,13.0,55,0.00,,SKC,0.00,VWS V13.01,2013-02-02 09:31:00,
2013-02-02 04:36:00,22.8,9.5,30.19,WNW,298,15.0,16.0,56,0.00,,SKC,0.00,VWS V13.01,2013-02-02 09:36:00,
2013-02-02 04:41:00,22.7,9.8,30.19,NW,304,7.0,9.0,57,0.00,,SKC,0.00,VWS V13.01,2013-02-02 09:41:00,
2013-02-02 04:46:00,22.7,9.8,30.19,West,279,13.0,15.0,57,0.00,,SKC,0.00,VWS V13.01,2013-02-02 09:46:00,
2013-02-02 04:51:00,22.6,10.1,30.19,WNW,300,10.0,11.0,58,0.00,,SKC,0.00,VWS V13.01,2013-02-02 09:51:00,
2013-02-02 04:56:00,22.6,10.1,30.20,WNW,283,11.0,24.0,58,0.00,,SKC,0.00,VWS V13.01,2013-02-02 09:56:00,
2013-02-02 05:01:00,22.6,9.7,30.20,NW,308,14.0,18.0,57,0.00,,SKC,0.00,VWS V13.01,2013-02-02 10:01:00,
2013-02-02 05:06:00,22.5,9.6,30.20,WNW,303,7.0,19.0,57,0.00,,SKC,0.00,VWS V13.01,2013-02-02 10:06:00,
2013-02-02 05:11:00,22.4,10.3,30.20,West,281,10.0,16.0,59,0.00,,SKC,0.00,VWS V13.01,2013-02-02 10:11:00,
2013-02-02 05:16:00,22.3,9.8,30.20,NW,304,11.0,20.0,58,0.00,,SKC,0.00,VWS V13.01,2013-02-02 10:16:00,
2013-02-02 05:21:00,22.2,9.7,30.20,WNW,295,14.0,18.0,58,0.00,,SKC,0.00,VWS V13.01,2013-02-02 10:21:00,
2013-02-02 05:26:00,22.3,9.4,30.20,West,279,13.0,22.0,57,0.00,,SKC,0.00,VWS V13.01,2013-02-02 10:26:00,
2013-02-02 05:31:00,22.4,9.5,30.21,WNW,284,11.0,13.0,57,0.00,,SKC,0.00,VWS V13.01,2013-02-02 10:31:00,
2013-02-02 05:36:00,22.4,9.9,30.21,WNW,298,13.0,18.0,58,0.00,,SKC,0.00,VWS V13.01,2013-02-02 10:36:00,
2013-02-02 05:41:00,22.4,10.3,30.21,WNW,298,21.0,21.0,59,0.00,,SKC,0.00,VWS V13.01,2013-02-02 10:41:00,
2013-02-02 05:46:00,22.5,10.4,30.21,WNW,293,17.0,23.0,59,0.00,,SKC,0.00,VWS V13.01,2013-02-02 10:46:00,
2013-02-02 05:51:00,22.5,10.4,30.21,WNW,286,12.0,12.0,59,0.00,,SKC,0.00,VWS V13.01,2013-02-02 10:51:00,
2013-02-02 05:56:00,22.5,10.0,30.21,NW,314,7.0,21.0,58,0.00,,SKC,0.00,VWS V13.01,2013-02-02 10:56:00,
2013-02-02 06:01:00,22.4,9.9,30.21,WNW,300,13.0,13.0,58,0.00,,SKC,0.00,VWS V13.01,2013-02-02 11:01:00,
2013-02-02 06:06:00,22.4,9.9,30.22,NW,309,16.0,21.0,58,0.00,,SKC,0.00,VWS V13.01,2013-02-02 11:06:00,
2013-02-02 06:11:00,22.4,10.3,30.21,NW,306,14.0,18.0,59,0.00,,SKC,0.00,VWS V13.01,2013-02-02 11:11:00,
2013-02-02 06:16:00,22.3,9.8,30.21,NW,315,14.0,18.0,58,0.00,,SKC,0.00,VWS V13.01,2013-02-02 11:16:00,
2013-02-02 06:21:00,22.2,10.1,30.21,WNW,291,8.0,14.0,59,0.00,,SKC,0.00,VWS V13.01,2013-02-02 11:21:00,
2013-02-02 06:27:00,22.1,10.0,30.22,NW,304,10.0,14.0,59,0.00,,SKC,0.00,VWS V13.01,2013-02-02 11:27:00,
2013-02-02 06:32:00,22.1,10.4,30.22,West,281,10.0,12.0,60,0.00,,SKC,0.00,VWS V13.01,2013-02-02 11:32:00,
2013-02-02 06:37:00,22.1,10.7,30.22,West,268,11.0,14.0,61,0.00,,SKC,0.00,VWS V13.01,2013-02-02 11:37:00,
2013-02-02 06:42:00,22.1,11.1,30.22,WNW,296,11.0,13.0,62,0.00,,SKC,0.00,VWS V13.01,2013-02-02 11:42:00,
2013-02-02 06:47:00,22.0,10.6,30.22,WNW,291,6.0,15.0,61,0.00,,SKC,0.00,VWS V13.01,2013-02-02 11:47:00,
2013-02-02 06:52:00,21.9,10.9,30.22,WNW,291,6.0,7.0,62,0.00,,SKC,0.00,VWS V13.01,2013-02-02 11:52:00,
2013-02-02 06:57:00,21.9,11.2,30.22,WNW,298,11.0,15.0,63,0.00,,SKC,0.00,VWS V13.01,2013-02-02 11:57:00,
2013-02-02 07:02:00,21.9,10.5,30.23,WNW,298,6.0,13.0,61,0.00,,SKC,0.00,VWS V13.01,2013-02-02 12:02:00,
2013-02-02 07:07:00,22.0,10.6,30.23,WNW,294,6.0,16.0,61,0.00,,SKC,0.00,VWS V13.01,2013-02-02 12:07:00,
2013-02-02 07:12:00,21.9,10.5,30.23,WNW,287,9.0,12.0,61,0.00,,SKC,0.00,VWS V13.01,2013-02-02 12:12:00,
2013-02-02 07:17:00,22.0,10.6,30.23,WNW,298,9.0,16.0,61,0.00,,SKC,0.00,VWS V13.01,2013-02-02 12:17:00,
2013-02-02 07:22:00,22.2,11.2,30.23,West,281,5.0,13.0,62,0.00,,SKC,0.00,VWS V13.01,2013-02-02 12:22:00,
2013-02-02 07:27:00,22.4,11.4,30.23,WNW,289,11.0,13.0,62,0.00,,SKC,0.00,VWS V13.01,2013-02-02 12:27:00,
2013-02-02 07:32:00,22.5,11.8,30.24,West,277,10.0,12.0,63,0.00,,SKC,0.00,VWS V13.01,2013-02-02 12:32:00,
2013-02-02 07:37:00,22.8,11.8,30.24,WNW,298,11.0,16.0,62,0.00,,SKC,0.00,VWS V13.01,2013-02-02 12:37:00,
2013-02-02 07:42:00,23.2,11.8,30.24,WNW,303,6.0,12.0,61,0.00,,SKC,0.00,VWS V13.01,2013-02-02 12:42:00,
2013-02-02 07:47:00,23.7,12.2,30.24,West,265,10.0,16.0,61,0.00,,SKC,0.00,VWS V13.01,2013-02-02 12:47:00,
2013-02-02 07:52:00,24.2,12.3,30.24,WNW,285,6.0,12.0,60,0.00,,SKC,0.00,VWS V13.01,2013-02-02 12:52:00,
2013-02-02 07:57:00,24.7,12.4,30.24,WNW,300,10.0,14.0,59,0.00,,SKC,0.00,VWS V13.01,2013-02-02 12:57:00,
2013-02-02 08:02:00,25.0,11.9,30.24,WNW,295,11.0,17.0,57,0.00,,SKC,0.00,VWS V13.01,2013-02-02 13:02:00,
2013-02-02 08:08:00,25.1,12.0,30.24,WNW,289,8.0,18.0,57,0.00,,SKC,0.00,VWS V13.01,2013-02-02 13:08:00,
2013-02-02 08:15:00,25.5,12.4,30.24,WNW,285,7.0,14.0,57,0.00,,SKC,0.00,VWS V13.01,2013-02-02 13:15:00,
2013-02-02 08:20:00,25.7,12.6,30.24,WNW,290,8.0,15.0,57,0.00,,SKC,0.00,VWS V13.01,2013-02-02 13:20:00,
2013-02-02 08:25:00,25.9,13.2,30.24,NW,306,10.0,14.0,58,0.00,,SKC,0.00,VWS V13.01,2013-02-02 13:25:00,
2013-02-02 08:30:00,26.2,12.7,30.24,West,265,6.0,18.0,56,0.00,,SKC,0.00,VWS V13.01,2013-02-02 13:30:00,
2013-02-02 08:35:00,26.5,12.9,30.24,WNW,286,6.0,17.0,56,0.00,,SKC,0.00,VWS V13.01,2013-02-02 13:35:00,
2013-02-02 08:40:00,26.9,13.3,30.25,WNW,301,12.0,17.0,56,0.00,,SKC,0.00,VWS V13.01,2013-02-02 13:40:00,
2013-02-02 08:45:00,27.1,12.7,30.25,West,273,12.0,18.0,54,0.00,,SKC,0.00,VWS V13.01,2013-02-02 13:45:00,
2013-02-02 08:50:00,27.3,13.3,30.25,West,262,7.0,18.0,55,0.00,,SKC,0.00,VWS V13.01,2013-02-02 13:50:00,
2013-02-02 08:55:00,26.8,13.2,30.25,West,268,14.0,14.0,56,0.00,,SKC,0.00,VWS V13.01,2013-02-02 13:55:00,
2013-02-02 09:00:00,26.9,12.5,30.25,WNW,293,15.0,17.0,54,0.00,,SKC,0.00,VWS V13.01,2013-02-02 14:00:00,
2013-02-02 09:05:00,26.9,12.5,30.25,WNW,302,13.0,16.0,54,0.00,,SKC,0.00,VWS V13.01,2013-02-02 14:05:00,
2013-02-02 09:11:00,26.6,13.0,30.25,West,267,12.0,16.0,56,0.00,,SKC,0.00,VWS V13.01,2013-02-02 14:11:00,
2013-02-02 09:16:00,26.7,13.9,30.26,WSW,244,12.0,16.0,58,0.00,,SKC,0.00,VWS V13.01,2013-02-02 14:16:00,
2013-02-02 09:21:00,26.2,13.8,30.25,West,269,13.0,18.0,59,0.00,,SKC,0.00,VWS V13.01,2013-02-02 14:21:00,
2013-02-02 09:26:00,26.5,14.5,30.25,SW,236,15.0,16.0,60,0.00,,SKC,0.00,VWS V13.01,2013-02-02 14:26:00,
2013-02-02 09:31:00,26.9,15.3,30.25,West,259,13.0,16.0,61,0.00,,SKC,0.00,VWS V13.01,2013-02-02 14:31:00,
2013-02-02 09:36:00,27.5,15.1,30.25,West,270,11.0,19.0,59,0.00,,SKC,0.00,VWS V13.01,2013-02-02 14:36:00,
2013-02-02 09:41:00,27.3,14.9,30.25,WSW,254,5.0,19.0,59,0.00,,SKC,0.00,VWS V13.01,2013-02-02 14:41:00,
2013-02-02 09:46:00,27.1,15.1,30.25,WSW,258,11.0,17.0,60,0.00,,SKC,0.00,VWS V13.01,2013-02-02 14:46:00,
2013-02-02 09:51:00,26.8,15.2,30.24,WSW,241,8.0,10.0,61,0.00,,SKC,0.00,VWS V13.01,2013-02-02 14:51:00,
2013-02-02 09:56:00,26.6,15.4,30.24,West,265,13.0,18.0,62,0.00,,SKC,0.00,VWS V13.01,2013-02-02 14:56:00,
2013-02-02 10:01:00,26.8,15.5,30.24,WSW,250,14.0,15.0,62,0.00,,SKC,0.00,VWS V13.01,2013-02-02 15:01:00,
2013-02-02 10:06:00,26.6,15.4,30.24,SW,236,14.0,15.0,62,0.00,,SKC,0.00,VWS V13.01,2013-02-02 15:06:00,
2013-02-02 10:11:00,26.2,15.7,30.24,WSW,239,8.0,8.0,64,0.00,,SKC,0.00,VWS V13.01,2013-02-02 15:11:00,
2013-02-02 10:16:00,26.1,16.0,30.24,West,259,9.0,15.0,65,0.00,,SKC,0.00,VWS V13.01,2013-02-02 15:16:00,
2013-02-02 10:21:00,26.7,16.5,30.24,West,276,12.0,12.0,65,0.00,,SKC,0.00,VWS V13.01,2013-02-02 15:21:00,
2013-02-02 10:26:00,27.5,17.3,30.24,WSW,240,10.0,15.0,65,0.00,,SKC,0.00,VWS V13.01,2013-02-02 15:26:00,
2013-02-02 10:31:00,27.4,16.5,30.24,WSW,251,9.0,13.0,63,0.00,,SKC,0.00,VWS V13.01,2013-02-02 15:31:00,
2013-02-02 10:36:00,27.2,15.2,30.24,SW,225,12.0,17.0,60,0.00,,SKC,0.00,VWS V13.01,2013-02-02 15:36:00,
2013-02-02 10:41:00,27.1,16.2,30.24,West,275,3.0,6.0,63,0.00,,SKC,0.00,VWS V13.01,2013-02-02 15:41:00,
2013-02-02 10:46:00,27.1,16.2,30.23,West,262,10.0,14.0,63,0.00,,SKC,0.00,VWS V13.01,2013-02-02 15:46:00,
2013-02-02 10:51:00,27.4,17.2,30.23,West,259,7.0,9.0,65,0.00,,SKC,0.00,VWS V13.01,2013-02-02 15:51:00,
2013-02-02 10:56:00,27.8,18.6,30.23,SW,228,4.0,17.0,68,0.00,,SKC,0.00,VWS V13.01,2013-02-02 15:56:00,
2013-02-02 11:01:00,28.7,17.7,30.23,SW,228,9.0,13.0,63,0.00,,SKC,0.00,VWS V13.01,2013-02-02 16:01:00,
2013-02-02 11:06:00,28.1,16.0,30.23,SW,232,7.0,20.0,60,0.00,,SKC,0.00,VWS V13.01,2013-02-02 16:06:00,
2013-02-02 11:11:00,27.9,16.6,30.22,SW,215,16.0,17.0,62,0.00,,SKC,0.00,VWS V13.01,2013-02-02 16:11:00,
2013-02-02 11:16:00,27.8,16.9,30.22,SSW,207,16.0,20.0,63,0.00,,SKC,0.00,VWS V13.01,2013-02-02 16:16:00,
2013-02-02 11:21:00,27.5,15.1,30.22,WSW,241,10.0,13.0,59,0.00,,SKC,0.00,VWS V13.01,2013-02-02 16:21:00,
2013-02-02 11:26:00,28.1,16.8,30.21,SW,225,14.0,17.0,62,0.00,,SKC,0.00,VWS V13.01,2013-02-02 16:26:00,
2013-02-02 11:31:00,27.9,16.6,30.21,SW,227,18.0,18.0,62,0.00,,SKC,0.00,VWS V13.01,2013-02-02 16:31:00,
2013-02-02 11:36:00,27.6,15.9,30.21,WSW,241,10.0,20.0,61,0.00,,SKC,0.00,VWS V13.01,2013-02-02 16:36:00,
2013-02-02 11:41:00,27.7,17.1,30.20,SW,223,12.0,14.0,64,0.00,,SKC,0.00,VWS V13.01,2013-02-02 16:41:00,
2013-02-02 11:46:00,27.5,16.6,30.20,SSW,211,13.0,20.0,63,0.00,,SKC,0.00,VWS V13.01,2013-02-02 16:46:00,
2013-02-02 11:51:00,27.4,16.1,30.20,SW,229,15.0,15.0,62,0.00,,SKC,0.00,VWS V13.01,2013-02-02 16:51:00,
2013-02-02 11:56:00,27.4,16.8,30.19,SW,220,22.0,22.0,64,0.00,,SKC,0.00,VWS V13.01,2013-02-02 16:56:00,
2013-02-02 12:01:00,27.7,17.1,30.19,SSW,213,16.0,21.0,64,0.00,,SKC,0.00,VWS V13.01,2013-02-02 17:01:00,
2013-02-02 12:06:00,27.7,16.8,30.19,SW,221,20.0,24.0,63,0.00,,SKC,0.00,VWS V13.01,2013-02-02 17:06:00,
2013-02-02 12:11:00,27.8,16.5,30.19,WSW,238,16.0,21.0,62,0.00,,SKC,0.00,VWS V13.01,2013-02-02 17:11:00,
2013-02-02 12:16:00,27.8,17.2,30.19,SW,219,17.0,23.0,64,0.00,,SKC,0.00,VWS V13.01,2013-02-02 17:16:00,
2013-02-02 12:21:00,27.6,17.4,30.18,SW,221,20.0,25.0,65,0.00,,SKC,0.00,VWS V13.01,2013-02-02 17:21:00,
2013-02-02 12:26:00,27.6,17.0,30.18,SW,226,18.0,25.0,64,0.00,,SKC,0.00,VWS V13.01,2013-02-02 17:26:00,
2013-02-02 12:31:00,27.3,17.1,30.17,SW,236,27.0,27.0,65,0.00,,SKC,0.00,VWS V13.01,2013-02-02 17:31:00,
2013-02-02 12:36:00,27.5,17.3,30.17,SW,231,17.0,27.0,65,0.00,,SKC,0.00,VWS V13.01,2013-02-02 17:36:00,
2013-02-02 12:41:00,27.5,17.6,30.17,WSW,238,21.0,28.0,66,0.00,,SKC,0.00,VWS V13.01,2013-02-02 17:41:00,
2013-02-02 12:46:00,27.9,17.3,30.17,SW,234,13.0,28.0,64,0.00,,SKC,0.00,VWS V13.01,2013-02-02 17:46:00,
2013-02-02 12:51:00,28.3,17.3,30.16,SW,214,18.0,21.0,63,0.00,,SKC,0.00,VWS V13.01,2013-02-02 17:51:00,
2013-02-02 12:56:00,28.4,17.8,30.16,SW,219,18.0,26.0,64,0.00,,SKC,0.00,VWS V13.01,2013-02-02 17:56:00,
2013-02-02 13:01:00,28.1,15.6,30.16,SW,236,15.0,17.0,59,0.00,,SKC,0.00,VWS V13.01,2013-02-02 18:01:00,
2013-02-02 13:06:00,28.1,17.1,30.15,SW,223,16.0,23.0,63,0.00,,SKC,0.00,VWS V13.01,2013-02-02 18:06:00,
2013-02-02 13:11:00,28.3,16.6,30.15,WSW,238,18.0,22.0,61,0.00,,SKC,0.00,VWS V13.01,2013-02-02 18:11:00,
2013-02-02 13:16:00,28.4,15.9,30.15,SW,220,14.0,24.0,59,0.00,,SKC,0.00,VWS V13.01,2013-02-02 18:16:00,
2013-02-02 13:22:00,28.1,15.2,30.15,SW,226,15.0,25.0,58,0.00,,SKC,0.00,VWS V13.01,2013-02-02 18:22:00,
2013-02-02 13:27:00,28.1,15.6,30.15,WSW,237,16.0,25.0,59,0.00,,SKC,0.00,VWS V13.01,2013-02-02 18:27:00,
2013-02-02 13:32:00,28.2,15.7,30.14,SW,234,18.0,23.0,59,0.00,,SKC,0.00,VWS V13.01,2013-02-02 18:32:00,
2013-02-02 13:37:00,28.1,15.6,30.14,SW,231,19.0,24.0,59,0.00,,SKC,0.00,VWS V13.01,2013-02-02 18:37:00,
2013-02-02 13:42:00,28.7,16.2,30.14,WSW,240,16.0,23.0,59,0.00,,SKC,0.00,VWS V13.01,2013-02-02 18:42:00,
2013-02-02 13:47:00,28.9,16.8,30.14,SW,219,17.0,25.0,60,0.00,,SKC,0.00,VWS V13.01,2013-02-02 18:47:00,
2013-02-02 13:52:00,28.7,16.2,30.14,SW,227,14.0,21.0,59,0.00,,SKC,0.00,VWS V13.01,2013-02-02 18:52:00,
2013-02-02 13:57:00,28.5,16.4,30.13,SW,229,20.0,24.0,60,0.00,,SKC,0.00,VWS V13.01,2013-02-02 18:57:00,
2013-02-02 14:02:00,28.9,16.8,30.13,SW,223,22.0,27.0,60,0.00,,SKC,0.00,VWS V13.01,2013-02-02 19:02:00,
2013-02-02 14:07:00,28.7,17.3,30.13,SSW,211,20.0,27.0,62,0.00,,SKC,0.00,VWS V13.01,2013-02-02 19:07:00,
2013-02-02 14:12:00,28.9,17.9,30.13,SW,236,15.0,17.0,63,0.00,,SKC,0.00,VWS V13.01,2013-02-02 19:12:00,
2013-02-02 14:17:00,29.6,18.6,30.13,SW,232,13.0,24.0,63,0.00,,SKC,0.00,VWS V13.01,2013-02-02 19:17:00,
2013-02-02 14:22:00,29.7,19.4,30.12,SW,229,30.0,30.0,65,0.00,,SKC,0.00,VWS V13.01,2013-02-02 19:22:00,
2013-02-02 14:27:00,29.5,18.5,30.12,SW,225,18.0,32.0,63,0.00,,SKC,0.00,VWS V13.01,2013-02-02 19:27:00,
2013-02-02 14:32:00,29.1,17.7,30.12,WSW,239,18.0,23.0,62,0.00,,SKC,0.00,VWS V13.01,2013-02-02 19:32:00,
2013-02-02 14:37:00,29.0,19.1,30.12,SW,218,15.0,24.0,66,0.00,,SKC,0.00,VWS V13.01,2013-02-02 19:37:00,
2013-02-02 14:42:00,28.7,18.4,30.12,SW,235,17.0,21.0,65,0.00,,SKC,0.00,VWS V13.01,2013-02-02 19:42:00,
2013-02-02 14:47:00,28.6,18.7,30.11,WSW,239,13.0,26.0,66,0.00,,SKC,0.00,VWS V13.01,2013-02-02 19:47:00,
2013-02-02 14:52:00,28.8,18.9,30.11,WSW,238,19.0,25.0,66,0.00,,SKC,0.00,VWS V13.01,2013-02-02 19:52:00,
2013-02-02 14:57:00,28.7,19.1,30.11,SW,221,17.0,25.0,67,0.00,,SKC,0.00,VWS V13.01,2013-02-02 19:57:00,
2013-02-02 15:02:00,28.9,20.0,30.10,SW,219,16.0,20.0,69,0.00,,SKC,0.00,VWS V13.01,2013-02-02 20:02:00,
2013-02-02 15:07:00,29.1,18.8,30.10,SW,221,18.0,24.0,65,0.00,,SKC,0.00,VWS V13.01,2013-02-02 20:07:00,
2013-02-02 15:12:00,29.2,19.3,30.10,SW,232,25.0,26.0,66,0.00,,SKC,0.00,VWS V13.01,2013-02-02 20:12:00,
2013-02-02 15:17:00,29.2,18.9,30.10,SW,224,25.0,32.0,65,0.00,,SKC,0.00,VWS V13.01,2013-02-02 20:17:00,
2013-02-02 15:22:00,29.2,19.3,30.10,SW,230,19.0,23.0,66,0.00,,SKC,0.00,VWS V13.01,2013-02-02 20:22:00,
2013-02-02 15:27:00,29.4,19.1,30.10,SW,228,19.0,33.0,65,0.00,,SKC,0.00,VWS V13.01,2013-02-02 20:27:00,
2013-02-02 15:32:00,29.4,18.7,30.10,SW,236,19.0,25.0,64,0.00,,SKC,0.00,VWS V13.01,2013-02-02 20:32:00,
2013-02-02 15:37:00,29.3,18.6,30.09,SW,215,21.0,27.0,64,0.00,,SKC,0.00,VWS V13.01,2013-02-02 20:37:00,
2013-02-02 15:42:00,29.1,18.8,30.10,SW,219,18.0,27.0,65,0.00,,SKC,0.00,VWS V13.01,2013-02-02 20:42:00,
2013-02-02 15:47:00,29.1,19.5,30.10,SW,214,25.0,32.0,67,0.00,,SKC,0.00,VWS V13.01,2013-02-02 20:47:00,
2013-02-02 15:52:00,29.2,18.9,30.09,SW,227,21.0,24.0,65,0.00,,SKC,0.00,VWS V13.01,2013-02-02 20:52:00,
2013-02-02 15:57:00,29.4,20.5,30.09,SW,232,29.0,30.0,69,0.00,,SKC,0.00,VWS V13.01,2013-02-02 20:57:00,
2013-02-02 16:02:00,29.5,20.3,30.09,SW,232,23.0,28.0,68,0.00,,SKC,0.00,VWS V13.01,2013-02-02 21:02:00,
2013-02-02 16:07:00,29.5,20.3,30.09,SW,222,21.0,29.0,68,0.00,,SKC,0.00,VWS V13.01,2013-02-02 21:07:00,
2013-02-02 16:12:00,29.5,20.3,30.09,SW,232,24.0,26.0,68,0.00,,SKC,0.00,VWS V13.01,2013-02-02 21:12:00,
2013-02-02 16:17:00,29.6,20.4,30.09,SW,227,20.0,28.0,68,0.00,,SKC,0.00,VWS V13.01,2013-02-02 21:17:00,
2013-02-02 16:22:00,29.6,19.6,30.09,SW,226,24.0,31.0,66,0.00,,SKC,0.00,VWS V13.01,2013-02-02 21:22:00,
2013-02-02 16:27:00,29.5,19.9,30.08,SW,223,26.0,31.0,67,0.00,,SKC,0.00,VWS V13.01,2013-02-02 21:27:00,
2013-02-02 16:32:00,29.6,20.7,30.08,SW,230,28.0,30.0,69,0.00,,SKC,0.00,VWS V13.01,2013-02-02 21:32:00,
2013-02-02 16:37:00,29.6,20.0,30.08,SW,232,20.0,34.0,67,0.00,,SKC,0.00,VWS V13.01,2013-02-02 21:37:00,
2013-02-02 16:43:00,29.6,20.0,30.08,SW,233,28.0,33.0,67,0.00,,SKC,0.00,VWS V13.01,2013-02-02 21:43:00,
2013-02-02 16:48:00,29.6,20.4,30.08,SW,231,21.0,33.0,68,0.00,,SKC,0.00,VWS V13.01,2013-02-02 21:48:00,
2013-02-02 16:53:00,29.5,20.3,30.08,SW,215,34.0,37.0,68,0.00,,SKC,0.00,VWS V13.01,2013-02-02 21:53:00,
2013-02-02 16:58:00,29.8,20.9,30.08,WSW,240,14.0,37.0,69,0.00,,SKC,0.00,VWS V13.01,2013-02-02 21:58:00,
2013-02-02 17:03:00,29.8,20.2,30.08,SW,223,19.0,25.0,67,0.00,,SKC,0.00,VWS V13.01,2013-02-02 22:03:00,
2013-02-02 17:08:00,29.8,19.8,30.08,SW,224,21.0,28.0,66,0.00,,SKC,0.00,VWS V13.01,2013-02-02 22:08:00,
2013-02-02 17:13:00,29.9,21.0,30.08,SW,227,25.0,33.0,69,0.00,,SKC,0.00,VWS V13.01,2013-02-02 22:13:00,
2013-02-02 17:18:00,30.0,20.4,30.08,SW,224,24.0,34.0,67,0.00,,SKC,0.00,VWS V13.01,2013-02-02 22:18:00,
2013-02-02 17:23:00,29.9,20.3,30.08,SW,225,21.0,27.0,67,0.00,,SKC,0.00,VWS V13.01,2013-02-02 22:23:00,
2013-02-02 17:28:00,30.1,21.2,30.07,SW,230,26.0,33.0,69,0.00,,SKC,0.00,VWS V13.01,2013-02-02 22:28:00,
2013-02-02 17:33:00,30.2,21.3,30.07,SSW,211,22.0,29.0,69,0.00,,SKC,0.00,VWS V13.01,2013-02-02 22:33:00,
2013-02-02 17:38:00,30.2,20.6,30.07,SW,235,24.0,33.0,67,0.00,,SKC,0.00,VWS V13.01,2013-02-02 22:38:00,
2013-02-02 17:43:00,30.3,20.7,30.08,SW,232,32.0,32.0,67,0.00,,SKC,0.00,VWS V13.01,2013-02-02 22:43:00,
2013-02-02 17:48:00,30.3,21.7,30.07,SW,223,19.0,33.0,70,0.00,,SKC,0.00,VWS V13.01,2013-02-02 22:48:00,
2013-02-02 17:53:00,30.3,20.0,30.07,SW,225,31.0,36.0,65,0.00,,SKC,0.00,VWS V13.01,2013-02-02 22:53:00,
2013-02-02 17:58:00,30.4,21.8,30.07,SW,225,22.0,36.0,70,0.00,,SKC,0.00,VWS V13.01,2013-02-02 22:58:00,
2013-02-02 18:03:00,30.5,21.2,30.08,SW,227,24.0,30.0,68,0.00,,SKC,0.00,VWS V13.01,2013-02-02 23:03:00,
2013-02-02 18:08:00,30.5,20.9,30.07,SW,223,20.0,32.0,67,0.00,,SKC,0.00,VWS V13.01,2013-02-02 23:08:00,
2013-02-02 18:13:00,30.6,20.6,30.07,SW,236,27.0,33.0,66,0.00,,SKC,0.00,VWS V13.01,2013-02-02 23:13:00,
2013-02-02 18:18:00,30.6,20.2,30.07,SW,221,20.0,33.0,65,0.00,,SKC,0.00,VWS V13.01,2013-02-02 23:18:00,
2013-02-02 18:23:00,30.5,21.2,30.07,SW,231,18.0,27.0,68,0.00,,SKC,0.00,VWS V13.01,2013-02-02 23:23:00,
2013-02-02 18:28:00,30.6,21.3,30.07,WSW,237,18.0,32.0,68,0.00,,SKC,0.00,VWS V13.01,2013-02-02 23:28:00,
2013-02-02 18:33:00,30.6,21.3,30.07,SW,236,27.0,30.0,68,0.00,,SKC,0.00,VWS V13.01,2013-02-02 23:33:00,
2013-02-02 18:38:00,30.6,21.3,30.06,SW,228,19.0,33.0,68,0.00,,SKC,0.00,VWS V13.01,2013-02-02 23:38:00,
2013-02-02 18:43:00,30.6,21.3,30.06,SW,227,25.0,28.0,68,0.00,,SKC,0.00,VWS V13.01,2013-02-02 23:43:00,
2013-02-02 18:48:00,30.6,21.6,30.06,SW,217,25.0,28.0,69,0.00,,SKC,0.00,VWS V13.01,2013-02-02 23:48:00,
2013-02-02 18:53:00,30.7,22.1,30.06,SSW,213,24.0,30.0,70,0.00,,SKC,0.00,VWS V13.01,2013-02-02 23:53:00,
2013-02-02 18:58:00,30.7,21.8,30.06,SW,215,20.0,30.0,69,0.00,,SKC,0.00,VWS V13.01,2013-02-02 23:58:00,
2013-02-02 19:03:00,30.9,21.2,30.06,SW,225,21.0,29.0,67,0.00,,SKC,0.00,VWS V13.01,2013-02-03 00:03:00,
2013-02-02 19:08:00,31.0,22.0,30.06,SW,229,21.0,32.0,69,0.00,,SKC,0.00,VWS V13.01,2013-02-03 00:08:00,
2013-02-02 19:13:00,31.0,23.0,30.06,SW,231,19.0,30.0,72,0.00,,SKC,0.00,VWS V13.01,2013-02-03 00:13:00,
2013-02-02 19:18:00,30.8,22.9,30.06,SW,229,24.0,33.0,72,0.00,,SKC,0.00,VWS V13.01,2013-02-03 00:18:00,
2013-02-02 19:23:00,30.6,23.6,30.06,SW,234,30.0,31.0,75,0.00,,SKC,0.00,VWS V13.01,2013-02-03 00:23:00,
2013-02-02 19:28:00,30.3,23.7,30.05,SSW,211,26.0,32.0,76,0.00,,SKC,0.00,VWS V13.01,2013-02-03 00:28:00,
2013-02-02 19:33:00,30.3,24.0,30.06,SW,226,20.0,25.0,77,0.00,,SKC,0.00,VWS V13.01,2013-02-03 00:33:00,
2013-02-02 19:38:00,30.3,23.3,30.05,SW,227,14.0,30.0,75,0.00,,SKC,0.00,VWS V13.01,2013-02-03 00:38:00,
2013-02-02 19:43:00,30.6,24.0,30.05,SW,216,21.0,26.0,76,0.00,,SKC,0.00,VWS V13.01,2013-02-03 00:43:00,
2013-02-02 19:48:00,30.7,23.1,30.05,SW,232,24.0,31.0,73,0.00,,SKC,0.00,VWS V13.01,2013-02-03 00:48:00,
2013-02-02 19:53:00,30.8,23.2,30.05,SW,223,25.0,26.0,73,0.00,,SKC,0.00,VWS V13.01,2013-02-03 00:53:00,
2013-02-02 19:58:00,30.9,22.6,30.05,SW,229,23.0,33.0,71,0.00,,SKC,0.00,VWS V13.01,2013-02-03 00:58:00,
2013-02-02 20:03:00,30.9,23.0,30.05,SW,229,22.0,28.0,72,0.00,,SKC,0.00,VWS V13.01,2013-02-03 01:03:00,
2013-02-02 20:09:00,30.8,22.9,30.04,SW,233,22.0,28.0,72,0.00,,SKC,0.00,VWS V13.01,2013-02-03 01:09:00,
2013-02-02 20:14:00,30.9,23.3,30.04,SW,232,18.0,28.0,73,0.00,,SKC,0.00,VWS V13.01,2013-02-03 01:14:00,
2013-02-02 20:19:00,31.0,23.4,30.04,SW,230,26.0,28.0,73,0.00,,SKC,0.00,VWS V13.01,2013-02-03 01:19:00,
2013-02-02 20:24:00,31.1,22.8,30.04,SW,218,19.0,29.0,71,0.00,,SKC,0.00,VWS V13.01,2013-02-03 01:24:00,
2013-02-02 20:29:00,31.1,22.8,30.04,SW,229,22.0,29.0,71,0.00,,SKC,0.00,VWS V13.01,2013-02-03 01:29:00,
2013-02-02 20:34:00,31.3,23.3,30.04,SW,227,15.0,24.0,72,0.00,,SKC,0.00,VWS V13.01,2013-02-03 01:34:00,
2013-02-02 20:39:00,31.1,22.5,30.04,SW,232,20.0,29.0,70,0.00,,SKC,0.00,VWS V13.01,2013-02-03 01:39:00,
2013-02-02 20:44:00,31.2,23.6,30.04,SW,232,23.0,25.0,73,0.00,,SKC,0.00,VWS V13.01,2013-02-03 01:44:00,
2013-02-02 20:49:00,31.3,24.0,30.04,SW,232,21.0,28.0,74,0.00,,SKC,0.00,VWS V13.01,2013-02-03 01:49:00,
2013-02-02 20:54:00,31.2,23.6,30.04,SW,236,17.0,25.0,73,0.00,,SKC,0.00,VWS V13.01,2013-02-03 01:54:00,
2013-02-02 20:59:00,31.1,24.1,30.04,SW,223,26.0,30.0,75,0.00,,SKC,0.00,VWS V13.01,2013-02-03 01:59:00,
2013-02-02 21:04:00,30.9,23.9,30.04,SW,225,23.0,29.0,75,0.00,,SKC,0.00,VWS V13.01,2013-02-03 02:04:00,
2013-02-02 21:09:00,30.8,24.1,30.04,SW,229,19.0,29.0,76,0.00,,SKC,0.00,VWS V13.01,2013-02-03 02:09:00,
2013-02-02 21:14:00,30.8,24.5,30.04,WSW,242,14.0,27.0,77,0.00,,SKC,0.00,VWS V13.01,2013-02-03 02:14:00,
2013-02-02 21:19:00,30.7,25.0,30.04,SW,235,27.0,28.0,79,0.00,,SKC,0.00,VWS V13.01,2013-02-03 02:19:00,
2013-02-02 21:24:00,30.1,25.6,30.04,SW,234,25.0,31.0,83,0.00,,SKC,0.00,VWS V13.01,2013-02-03 02:24:00,
2013-02-02 21:29:00,29.8,25.9,30.04,SW,221,19.0,31.0,85,0.00,,SKC,0.00,VWS V13.01,2013-02-03 02:29:00,
2013-02-02 21:34:00,29.6,25.6,30.04,WSW,248,20.0,27.0,85,0.00,,SKC,0.00,VWS V13.01,2013-02-03 02:34:00,
2013-02-02 21:39:00,29.5,25.8,30.04,WSW,242,21.0,27.0,86,0.00,,SKC,0.00,VWS V13.01,2013-02-03 02:39:00,
2013-02-02 21:44:00,29.3,25.4,30.04,WSW,240,16.0,16.0,85,0.00,,SKC,0.00,VWS V13.01,2013-02-03 02:44:00,
2013-02-02 21:49:00,29.0,24.8,30.03,WSW,250,16.0,20.0,84,0.00,,SKC,0.00,VWS V13.01,2013-02-03 02:49:00,
2013-02-02 21:54:00,28.9,25.0,30.03,West,259,9.0,17.0,85,0.00,,SKC,0.00,VWS V13.01,2013-02-03 02:54:00,
2013-02-02 21:59:00,28.9,25.0,30.03,West,265,9.0,22.0,85,0.00,,SKC,0.00,VWS V13.01,2013-02-03 02:59:00,
2013-02-02 22:04:00,28.8,24.9,30.03,SW,232,12.0,19.0,85,0.00,,SKC,0.00,VWS V13.01,2013-02-03 03:04:00,
2013-02-02 22:09:00,28.8,25.1,30.03,WSW,253,14.0,19.0,86,0.00,,SKC,0.00,VWS V13.01,2013-02-03 03:09:00,
2013-02-02 22:14:00,28.7,25.3,30.03,WSW,252,13.0,19.0,87,0.00,,SKC,0.00,VWS V13.01,2013-02-03 03:14:00,
2013-02-02 22:19:00,28.5,25.4,30.04,WSW,252,12.0,22.0,88,0.00,,SKC,0.00,VWS V13.01,2013-02-03 03:19:00,
2013-02-02 22:24:00,28.3,25.5,30.04,WSW,249,12.0,18.0,89,0.00,,SKC,0.00,VWS V13.01,2013-02-03 03:24:00,
2013-02-02 22:29:00,28.1,25.3,30.04,West,273,14.0,21.0,89,0.00,,SKC,0.00,VWS V13.01,2013-02-03 03:29:00,
2013-02-02 22:34:00,27.9,25.1,30.04,West,265,10.0,22.0,89,0.00,,SKC,0.00,VWS V13.01,2013-02-03 03:34:00,
2013-02-02 22:39:00,27.7,25.2,30.04,West,263,7.0,22.0,90,0.00,,SKC,0.00,VWS V13.01,2013-02-03 03:39:00,
2013-02-02 22:44:00,27.5,25.0,30.04,West,269,12.0,18.0,90,0.00,,SKC,0.00,VWS V13.01,2013-02-03 03:44:00,
2013-02-02 22:49:00,27.4,24.9,30.04,West,277,13.0,18.0,90,0.00,,SKC,0.00,VWS V13.01,2013-02-03 03:49:00,
2013-02-02 22:54:00,27.2,24.7,30.04,WNW,286,17.0,19.0,90,0.00,,SKC,0.00,VWS V13.01,2013-02-03 03:54:00,
2013-02-02 22:59:00,27.1,24.6,30.04,WNW,285,10.0,19.0,90,0.00,,SKC,0.00,VWS V13.01,2013-02-03 03:59:00,
2013-02-02 23:04:00,27.0,24.7,30.04,WSW,258,12.0,16.0,91,0.00,,SKC,0.00,VWS V13.01,2013-02-03 04:04:00,
2013-02-02 23:09:00,26.9,24.6,30.04,West,265,11.0,22.0,91,0.00,,SKC,0.00,VWS V13.01,2013-02-03 04:09:00,
2013-02-02 23:14:00,26.9,24.6,30.04,WNW,288,5.0,18.0,91,0.00,,SKC,0.00,VWS V13.01,2013-02-03 04:14:00,
2013-02-02 23:19:00,26.9,24.6,30.04,WNW,288,13.0,20.0,91,0.00,,SKC,0.00,VWS V13.01,2013-02-03 04:19:00,
2013-02-02 23:24:00,26.8,24.5,30.04,WNW,288,15.0,20.0,91,0.01,,SKC,0.01,VWS V13.01,2013-02-03 04:24:00,
2013-02-02 23:29:00,26.6,24.3,30.04,WNW,287,15.0,20.0,91,0.01,,SKC,0.01,VWS V13.01,2013-02-03 04:29:00,
2013-02-02 23:34:00,26.6,24.3,30.04,WNW,288,9.0,20.0,91,0.01,,SKC,0.01,VWS V13.01,2013-02-03 04:34:00,
2013-02-02 23:40:00,26.7,24.4,30.03,West,280,10.0,21.0,91,0.01,,SKC,0.01,VWS V13.01,2013-02-03 04:40:00,
2013-02-02 23:45:00,26.9,24.9,30.03,West,281,7.0,17.0,92,0.01,,SKC,0.01,VWS V13.01,2013-02-03 04:45:00,
2013-02-02 23:50:00,26.8,24.8,30.03,West,267,11.0,22.0,92,0.01,,SKC,0.01,VWS V13.01,2013-02-03 04:50:00,
2013-02-02 23:55:00,26.7,24.7,30.03,West,276,10.0,18.0,92,0.01,,SKC,0.01,VWS V13.01,2013-02-03 04:55:00,